This is the latest recevied weather packets stored in our database for station/object KK7KRZ. If no packets are shown the sender has not sent any weather packets the latest 10 day(s).
| Time | Temp. | Humidity | Pressure | Rain* | Wind** | Luminosity | Snow |
|---|---|---|---|---|---|---|---|
| 1777744293 | 13.33° C | 78% | 1015.4 hPa | 0 mm | - | 178 W/m² | - |
| 1777743991 | 12.78° C | 80% | 1015.5 hPa | 0 mm | - | 318 W/m² | - |
| 1777743687 | 12.78° C | 80% | 1015 hPa | 0 mm | - | 180 W/m² | - |
| 1777743385 | 12.78° C | 80% | 1015.4 hPa | 0 mm | - | 145 W/m² | - |
| 1777743082 | 12.78° C | 79% | 1015.1 hPa | 0 mm | - | 104 W/m² | - |
| 1777742779 | 12.78° C | 79% | 1015.4 hPa | 0 mm | - | 100 W/m² | - |
| 1777742476 | 12.78° C | 79% | 1015.7 hPa | 0 mm | - | 130 W/m² | - |
| 1777742171 | 13.33° C | 78% | 1015.5 hPa | 0 mm | - | 167 W/m² | - |
| 1777741868 | 12.78° C | 79% | 1015.7 hPa | 0 mm | - | 189 W/m² | - |
| 1777741566 | 12.78° C | 79% | 1015.8 hPa | 0 mm | - | 209 W/m² | - |
| 1777741262 | 12.22° C | 81% | 1016.1 hPa | 0 mm | - | 164 W/m² | - |
| 1777740959 | 12.22° C | 81% | 1016.1 hPa | 0 mm | - | 156 W/m² | - |
| 1777740656 | 12.22° C | 82% | 1015.8 hPa | 0 mm | - | 164 W/m² | - |
| 1777740352 | 12.22° C | 81% | 1016 hPa | 0 mm | - | 167 W/m² | - |
| 1777740049 | 12.22° C | 82% | 1016.1 hPa | 0 mm | - | 133 W/m² | - |
| 1777739745 | 12.22° C | 81% | 1016 hPa | 0 mm | - | 122 W/m² | - |
| 1777739442 | 12.22° C | 82% | 1016.1 hPa | 0 mm | - | 105 W/m² | - |
| 1777739139 | 12.22° C | 82% | 1016.1 hPa | 0 mm | - | 124 W/m² | - |
| 1777738836 | 12.22° C | 83% | 1016.3 hPa | 0 mm | - | 120 W/m² | - |
| 1777738533 | 11.67° C | 83% | 1016.2 hPa | 0 mm | - | 98 W/m² | - |
| 1777738231 | 12.22° C | 82% | 1016.2 hPa | 0 mm | - | 104 W/m² | - |
| 1777737928 | 12.22° C | 83% | 1016.2 hPa | 0 mm | - | 110 W/m² | - |
| 1777737627 | 11.67° C | 82% | 1016 hPa | 0 mm | - | 106 W/m² | - |
| 1777737325 | 11.67° C | 82% | 1016 hPa | 0 mm | - | 101 W/m² | - |
| 1777737021 | 11.67° C | 83% | 1016.3 hPa | 0 mm | - | 115 W/m² | - |
* Rain latest hour (hover to see other rain measurements)
** Current wind speed in m/s (hover to see current wind gust speed)